[[{"header":{"parameterUnit":"m.s-1","parameterCategory":1,"la1":30.2991,"la2":30.254,"lo1":-89.0895,"lo2":-89.0444,"dy":0.0017,"dx":0.0017,"nx":28,"ny":28,"refTime":"2025-12-04T03:00:00:Z","depth":0,"parameterNumber":2,"parameterNumberName":"U-component_of_WINDS"},"data":[0,0,0,0,0,0,0,0,0,0,0,0,0,0,0,0,0,0,0,0,0,0,0,0,0,0,0,0,0,0,0,0,0,0,0,0,0,0,0,0,0,0,0,0,0,0,0,0,0,0,0,0,0,0,0,0,0,0,-3.0376,-3.0376,0,-3.0415,-3.0415,-3.0416,-3.0369,-3.0367,-3.0366,-3.0364,-3.0402,-3.0404,-3.0407,0,0,0,0,0,0,0,0,0,0,0,0,0,-3.0257,-3.0259,-3.0376,-3.0376,-3.0377,-3.0415,-3.0415,-3.0416,-3.0369,-3.0367,-3.0365,-3.0363,-3.0401,-3.0404,-3.0407,0,0,0,0,0,0,0,0,0,0,0,0,0,-3.0304,-3.026,-3.0376,-3.0358,-3.0357,-3.0415,-3.0415,-3.0416,-3.037,-3.0367,-3.0365,-3.0362,-3.04,-3.0403,-3.0407,-3.0484,0,0,-3.0419,-3.0421,0,0,0,0,0,0,0,0,-3.0301,-3.0308,-3.036,-3.0359,-3.0358,-3.0384,-3.0387,-3.0439,-3.037,-3.0365,-3.0364,-3.0361,-3.0398,-3.0402,-3.0415,-3.0485,-3.0487,-3.042,-3.0422,-3.0424,-3.0425,0,0,0,0,0,0,0,-3.0298,-3.0306,-3.0391,-3.0361,-3.036,-3.0347,-3.0351,-3.0397,-3.0395,-3.0365,-3.0362,-3.0367,-3.0397,-3.0411,-3.0415,-3.0488,-3.042,-3.0423,-3.0426,-3.0427,-3.0621,-3.0623,0,0,0,0,0,0,-3.0297,-3.0304,-3.039,-3.0392,-3.0323,-3.0351,-3.0356,-3.0379,-3.0395,-3.0395,-3.0369,-3.0365,-3.0406,-3.0411,-3.0416,-3.0505,-3.0424,-3.0427,-3.043,-3.0618,-3.0621,-3.0624,0,0,0,0,0,0,-3.0295,-3.0305,-3.0388,-3.0347,-3.0357,-3.0356,-3.0382,-3.0381,-3.0395,-3.0398,-3.0397,-3.0385,-3.0404,-3.0411,-3.0467,-3.0506,-3.0429,-3.0433,-3.0615,-3.0619,-3.0623,-3.0685,0,0,0,0,0,0,-3.0291,-3.0305,-3.0334,-3.0348,-3.0359,-3.0439,-3.0385,-3.0383,-3.0402,-3.0397,-3.0412,-3.0412,-3.0402,-3.0461,-3.0471,-3.051,-3.0436,-3.0611,-3.0617,-3.0622,-3.0679,-3.0691,-3.07,0,0,0,0,0,-3.0287,-3.035,-3.0336,-3.0347,-3.0397,-3.0442,-3.0448,-3.0436,-3.0406,-3.0435,-3.0437,-3.0411,-3.0501,-3.0468,-3.0478,-3.0519,-3.0609,-3.0615,-3.0621,-3.0675,-3.0688,-3.07,0,0,0,0,0,0,-3.034,-3.0352,-3.0336,-3.0406,-3.0423,-3.0434,-3.047,-3.0452,-3.0478,-3.0471,-3.0455,-3.0459,-3.0518,-3.0524,-3.0487,-3.0593,-3.0549,-3.0558,-3.0586,-3.06,-3.061,-3.0607,-3.0439,0,0,0,0,0,-3.036,-3.0397,-3.0404,-3.0465,-3.0474,-3.0471,-3.049,-3.048,-3.0497,-3.0504,-3.051,-3.0527,-3.0558,-3.0579,-3.0609,-3.068,-3.0682,-3.0713,-3.0724,-3.0733,-3.074,-3.0776,-3.079,-3.0645,-3.0645,-3.0645,0,0,-3.0401,-3.0412,-3.0436,-3.0476,-3.0488,-3.0525,-3.0478,-3.0519,-3.0546,-3.051,-3.0563,-3.0568,-3.0586,-3.065,-3.0678,-3.0656,-3.078,-3.0741,-3.0747,-3.075,-3.0784,-3.0798,-3.081,-3.0649,-3.0649,-3.0648,0,0,-3.0495,-3.0508,-3.0558,-3.0572,-3.0591,-3.0589,-3.0601,-3.0615,-3.0616,-3.067,-3.0643,-3.0674,-3.073,-3.0743,-3.0757,-3.0855,-3.0832,-3.0865,-3.0919,-3.0955,-3.0967,-3.0977,-3.101,-3.1022,-3.0872,-3.0873,-3.0873,0,-3.0543,-3.0599,-3.0587,-3.063,-3.0648,-3.0617,-3.0668,-3.0681,-3.0709,-3.0721,-3.0697,-3.0765,-3.0775,-3.084,-3.0864,-3.0877,-3.0889,-3.0863,-3.0966,-3.0976,-3.0985,-3.1017,-3.103,-3.0876,-3.0876,-3.0875,-3.0875,0,-3.0657,-3.0696,-3.0735,-3.0763,-3.0785,-3.0832,-3.0825,-3.0848,-3.0836,-3.0835,-3.0889,-3.09,-3.093,-3.0945,-3.0934,-3.1009,-3.0995,-3.0969,-3.0925,-3.1003,-3.1032,-3.1044,-3.0882,-3.088,-3.0879,-3.0878,0,0,-3.0784,-3.0805,-3.0819,-3.0831,-3.085,-3.088,-3.0924,-3.0955,-3.0974,-3.0995,-3.1031,-3.1078,-3.1054,-3.107,-3.1059,-3.1091,-3.1165,-3.106,-3.106,-3.1078,-3.1247,-3.1266,-3.128,-3.1151,-3.1153,-3.1155,-3.1245,0,-3.0877,-3.0956,-3.0945,-3.102,-3.1055,-3.1027,-3.1065,-3.1081,-3.1081,-3.111,-3.111,-3.1143,-3.111,-3.1119,-3.1149,-3.115,-3.1199,-3.1144,-3.1183,-3.1184,-3.1178,-3.1296,-3.1316,-3.1401,-3.1257,-3.1259,-3.126,0,-3.0996,-3.1021,-3.1099,-3.1112,-3.1126,-3.1161,-3.1187,-3.1216,-3.1232,-3.123,-3.1248,-3.1231,-3.1274,-3.1231,-3.1289,-3.1252,-3.1267,-3.127,-3.1273,-3.1275,-3.1226,-3.13,-3.1427,-3.144,-3.1279,-3.1277,-3.1276,0,-3.1079,-3.1132,-3.1185,-3.1197,-3.1213,-3.1238,-3.1246,-3.126,-3.1278,-3.1301,-3.1312,-3.134,-3.1355,-3.1376,-3.1366,-3.1336,-3.1426,-3.1382,-3.1424,-3.1425,-3.1444,-3.1442,-3.1574,-3.1456,-3.1456,-3.1456,-3.1456,0,-3.1183,-3.1232,-3.1223,-3.1256,-3.1309,-3.1296,-3.1349,-3.1353,-3.1365,-3.1397,-3.1374,-3.1405,-3.1391,-3.142,-3.1413,-3.1462,-3.1469,-3.1468,-3.1465,-3.1469,-3.1469,-3.1478,-3.1471,-3.1459,-3.1459,-3.1458,-3.1457,0,-3.1285,-3.1281,-3.1337,-3.1348,-3.1352,-3.1391,-3.1399,-3.1429,-3.1428,-3.1469,-3.1477,-3.1475,-3.1508,-3.1501,-3.1537,-3.1532,-3.1593,-3.1584,-3.1588,-3.1585,-3.1627,-3.1623,-3.1768,-3.1786,-3.1658,-3.1659,-3.166,0,-3.135,-3.1387,-3.1402,-3.1422,-3.1432,-3.1465,-3.1484,-3.1472,-3.1492,-3.1513,-3.154,-3.1571,-3.1595,-3.1649,-3.165,-3.1677,-3.1667,-3.1716,-3.1671,-3.1673,-3.1666,-3.1663,-3.1666,-3.1725,-3.1726,-3.1727,-3.1728,0,-3.1467,-3.1463,-3.1492,-3.152,-3.1543,-3.1564,-3.1582,-3.16,-3.159,-3.1614,-3.1647,-3.1666,-3.1703,-3.1733,-3.1758,-3.1765,-3.1745,-3.1743,-3.1754,-3.1758,-3.1758,-3.1757,-3.1611,-3.1739,-3.1738,-3.1737,-3.1737,-3.1736,-3.1552,-3.1582,-3.1598,-3.163,-3.1643,-3.166,-3.1689,-3.1691,-3.1719,-3.1749,-3.174,-3.1778,-3.1792,-3.1823,-3.1833,-3.1862,-3.1843,-3.1859,-3.1863,-3.1867,-3.1871,-3.1755,-3.1866,-3.1866,-3.1866,-3.1865,-3.1865,0,-3.1666,-3.1674,-3.1704,-3.1731,-3.1756,-3.1736,-3.1755,-3.1777,-3.181,-3.1826,-3.185,-3.1888,-3.1917,-3.192,-3.1947,-3.1969,-3.1961,-3.1977,-3.1974,-3.1976,-3.1887,-3.1874,-3.1983,-3.1983,-3.1983,-3.1983,-3.1983,-3.1983,-3.1728,-3.1778,-3.1776,-3.1833,-3.184,-3.1878,-3.189,-3.1906,-3.1918,-3.1961,-3.1986,-3.1988,-3.1998,-3.2026,-3.2051,-3.2051,-3.2061,-3.2081,-3.2077,-3.1994,-3.1982,-3.1971,-3.1959,-3.2084,-3.2084,-3.2163,-3.2164,-3.2164]},{"header":{"parameterUnit":"m.s-1","parameterCategory":1,"la1":30.2991,"la2":30.254,"lo1":-89.0895,"lo2":-89.0444,"dy":0.0017,"dx":0.0017,"nx":28,"ny":28,"refTime":"2025-12-04T03:00:00:Z","depth":0,"parameterNumber":3,"parameterNumberName":"V-component_of_WINDS"},"data":[0,0,0,0,0,0,0,0,0,0,0,0,0,0,0,0,0,0,0,0,0,0,0,0,0,0,0,0,0,0,0,0,0,0,0,0,0,0,0,0,0,0,0,0,0,0,0,0,0,0,0,0,0,0,0,0,0,0,0.2409,0.2408,0,0.2326,0.2325,0.2324,0.2302,0.2302,0.2303,0.2303,0.2215,0.2213,0.221,0,0,0,0,0,0,0,0,0,0,0,0,0,0.2547,0.2545,0.2409,0.2408,0.2407,0.2326,0.2325,0.2324,0.2302,0.2302,0.2303,0.2303,0.2216,0.2213,0.221,0,0,0,0,0,0,0,0,0,0,0,0,0,0.2478,0.2544,0.241,0.2386,0.2384,0.2326,0.2325,0.2324,0.2301,0.2302,0.2303,0.2304,0.2217,0.2213,0.2209,0.2168,0,0,0.2196,0.2195,0,0,0,0,0,0,0,0,0.2482,0.2473,0.2391,0.2388,0.2385,0.2325,0.2341,0.2271,0.2301,0.2333,0.2303,0.2304,0.2251,0.2244,0.2227,0.2164,0.216,0.2196,0.2193,0.2192,0.219,0,0,0,0,0,0,0,0.2487,0.2476,0.2376,0.239,0.2386,0.238,0.2371,0.2328,0.2289,0.233,0.2328,0.2319,0.225,0.2231,0.2225,0.2159,0.2196,0.2192,0.219,0.2188,0.2059,0.2058,0,0,0,0,0,0,0.2496,0.2481,0.2379,0.2374,0.2436,0.2377,0.2366,0.2343,0.2289,0.2281,0.2318,0.2318,0.2238,0.223,0.2221,0.217,0.2192,0.2188,0.2185,0.206,0.2059,0.2058,0,0,0,0,0,0,0.2499,0.2487,0.2382,0.2427,0.2413,0.2373,0.2348,0.2341,0.2323,0.228,0.2273,0.2307,0.2238,0.2227,0.2182,0.2167,0.2186,0.2182,0.2061,0.2059,0.2058,0.2067,0,0,0,0,0,0,0.2503,0.2488,0.2473,0.2427,0.2411,0.2345,0.2347,0.2339,0.2316,0.2315,0.2267,0.226,0.2238,0.2188,0.2178,0.2161,0.2179,0.2062,0.206,0.2059,0.2068,0.2066,0.2064,0,0,0,0,0,0.2508,0.2478,0.2472,0.246,0.239,0.2344,0.2335,0.231,0.2315,0.2298,0.2271,0.2262,0.217,0.2184,0.2172,0.2154,0.2063,0.2061,0.2059,0.2068,0.2066,0.2064,0,0,0,0,0,0,0.2522,0.2471,0.2464,0.2419,0.2386,0.234,0.2319,0.2309,0.2274,0.2274,0.2245,0.2234,0.219,0.2167,0.2184,0.2111,0.2116,0.2112,0.2128,0.2125,0.2124,0.213,0.2175,0,0,0,0,0,0.252,0.2487,0.2444,0.2408,0.2392,0.2359,0.2337,0.2322,0.2286,0.2272,0.2241,0.2207,0.217,0.2146,0.211,0.2064,0.2053,0.2046,0.2044,0.2043,0.2039,0.2013,0.2009,0.2051,0.2051,0.2051,0,0,0.2515,0.2484,0.2464,0.241,0.2383,0.2349,0.2347,0.2311,0.2285,0.2266,0.2221,0.2198,0.2157,0.2111,0.209,0.2091,0.2025,0.2041,0.204,0.2037,0.201,0.2006,0.2003,0.2049,0.205,0.205,0,0,0.2489,0.2462,0.2429,0.2402,0.2361,0.2339,0.2331,0.2287,0.2271,0.2226,0.2211,0.218,0.2118,0.2089,0.2067,0.2031,0.202,0.202,0.2011,0.1985,0.1982,0.1979,0.1965,0.1961,0.2016,0.2016,0.2016,0,0.2488,0.2437,0.2413,0.2378,0.2354,0.2337,0.2302,0.2277,0.2226,0.221,0.2213,0.2135,0.2106,0.2053,0.2045,0.2027,0.2017,0.2025,0.1985,0.1981,0.1978,0.1965,0.196,0.2016,0.2016,0.2016,0.2016,0,0.2437,0.2402,0.238,0.2333,0.2307,0.2272,0.2242,0.2219,0.2206,0.2183,0.2138,0.2103,0.206,0.2046,0.2032,0.1991,0.1993,0.1991,0.1995,0.1975,0.1962,0.1957,0.2017,0.2017,0.2017,0.2016,0,0,0.2417,0.2357,0.2349,0.2328,0.2282,0.2254,0.2218,0.2177,0.2157,0.2123,0.2092,0.2041,0.2038,0.2012,0.1995,0.1973,0.1947,0.1973,0.1972,0.1969,0.1899,0.19,0.1895,0.194,0.1939,0.1938,0.1902,0,0.2384,0.2321,0.2299,0.2247,0.2214,0.2197,0.2166,0.2134,0.2113,0.2081,0.2057,0.202,0.202,0.2004,0.1982,0.1955,0.1932,0.1957,0.191,0.1909,0.192,0.1888,0.189,0.1857,0.1897,0.1896,0.1895,0,0.2338,0.2304,0.2249,0.2207,0.2192,0.2165,0.2126,0.2096,0.2059,0.2045,0.2017,0.2002,0.1964,0.1971,0.1918,0.1936,0.1915,0.1899,0.1897,0.1891,0.19,0.188,0.1846,0.1841,0.1887,0.1888,0.1888,0,0.2328,0.2268,0.2228,0.221,0.216,0.2141,0.212,0.2084,0.2061,0.2026,0.2011,0.1972,0.195,0.192,0.1894,0.1902,0.1843,0.1849,0.1829,0.183,0.1817,0.1818,0.1778,0.1805,0.1805,0.1805,0.1805,0,0.2293,0.226,0.2222,0.2197,0.2159,0.2134,0.2097,0.2074,0.2043,0.2013,0.1996,0.1968,0.1936,0.1903,0.1883,0.1842,0.1832,0.1819,0.1814,0.182,0.1822,0.1805,0.1807,0.1804,0.1804,0.1805,0.1805,0,0.2275,0.2249,0.2203,0.2161,0.2149,0.2123,0.2086,0.2061,0.2039,0.2001,0.1991,0.1956,0.1916,0.1888,0.1838,0.1824,0.1779,0.1775,0.1792,0.1789,0.1771,0.1773,0.1719,0.171,0.1744,0.1744,0.1744,0,0.2254,0.2229,0.2184,0.2163,0.2141,0.2108,0.2084,0.2058,0.2034,0.1991,0.1971,0.1931,0.1897,0.1835,0.1805,0.1766,0.176,0.1744,0.1754,0.1761,0.1759,0.176,0.1757,0.1742,0.1741,0.1741,0.1741,0,0.2221,0.2209,0.2176,0.2138,0.2111,0.208,0.2048,0.2032,0.2,0.1974,0.1934,0.1909,0.1858,0.1818,0.1776,0.1753,0.1741,0.1738,0.1732,0.1737,0.1748,0.1741,0.1787,0.1739,0.174,0.174,0.174,0.174,0.22,0.2176,0.2141,0.2105,0.2079,0.205,0.2024,0.1999,0.1966,0.1923,0.191,0.1868,0.1833,0.1776,0.1752,0.1719,0.1719,0.171,0.1707,0.1705,0.1705,0.1754,0.1711,0.1711,0.1711,0.1711,0.1711,0,0.2164,0.2141,0.2108,0.2065,0.2037,0.203,0.1995,0.1971,0.1935,0.1903,0.1871,0.1826,0.1787,0.1754,0.1714,0.1694,0.1687,0.1684,0.1685,0.1679,0.1707,0.1717,0.169,0.169,0.169,0.169,0.169,0.169,0.2143,0.2102,0.2086,0.2033,0.2009,0.1969,0.195,0.1923,0.1898,0.1848,0.1816,0.1795,0.1762,0.172,0.1684,0.1675,0.1661,0.1659,0.1648,0.1675,0.1677,0.168,0.1688,0.1656,0.1656,0.1623,0.1623,0.1623]}]]